ORBCOMM FM113 [+] (41185 NORAD) Tracking and Keplerian Element Data

This shows tracking and keplerian element data for the satellite.

Feedback or suggestion? Click here.




ElementValue
Catalog41185
NameORBCOMM FM113 [+]
Epoch Orbit30636
Epoch Day261.71251349
Epoch Year2021
RAAN152.3991
Inclination47.001
Eccentricity0.00023
Argument of Perigee287.7407
Mean Anonmoly72.3226
Mean Motion14.54920503
Decay Rate1.7E-07
L11 41185U 15081G 21261.71251349 .00000017 00000-0 42252-4 0 9995
L22 41185 47.0010 152.3991 0002300 287.7407 72.3226 14.54920503306366

Live tracking and technical data element details for ORBCOMM FM113 [+] (NORAD 41185). ORBCOMM FM113 [+] can be tracked NOW for your location showing map with azimuth and elevation plus other details from your city location.

Track the satellite on the map from your city or location and see movement details for azimuth, elevation, latitude, longitude, range, height, and movement on the map or in text.







IsCatalogInMostPopularTable: catalog: 41185, numindb: 571
Update: records affected: 1



GetName: 41185 ORBCOMM FM113 [+]

Hit Count: updated at: Sun, 26 Sep 2021 00:25:56 GMT